GFSGL_sfc_dewp_273.txt.gz
Dewpoint
53 53 54 55 55 55 55 54 53 53 52 49 49 47 47 47 48 46 46 47 50 53 53 53 55 55 55 54 55 56 56 60 58 60 62 63 63 62 63 64 63 62 60
52 53 54 55 55 54 54 53 52 50 49 48 47 47 46 46 46 46 46 48 50 49 50 49 49 52 54 55 54 53 52 58 57 58 60 62 63 62 62 62 62 62 60
52 54 53 54 54 53 52 51 50 49 48 47 47 46 46 46 46 46 48 47 46 46 45 46 46 48 51 54 53 51 50 53 55 57 57 62 62 63 61 61 61 61 60
53 53 53 53 52 51 50 49 49 48 46 46 46 47 47 47 46 47 46 45 46 46 46 46 45 45 47 51 50 52 51 51 51 52 53 59 61 61 61 60 59 60 59
52 53 54 52 50 49 48 47 47 46 46 47 46 46 46 46 42 42 44 44 44 44 45 45 45 46 49 51 51 51 51 51 51 48 49 54 58 58 58 58 58 59 59
52 52 51 49 47 47 46 46 44 46 46 46 44 44 44 44 44 43 42 42 42 42 42 43 44 47 47 49 51 52 53 51 50 49 47 49 50 57 59 58 57 56 55
49 48 47 46 45 44 44 43 43 44 45 43 43 43 43 43 43 42 42 40 42 42 42 43 44 45 48 47 49 51 50 51 53 52 51 50 51 54 58 58 57 57 57
47 45 44 43 42 42 42 43 45 45 43 42 41 41 42 43 43 42 41 40 39 40 41 43 42 44 46 47 47 46 46 47 49 52 53 51 49 52 58 58 59 58 58
43 40 40 41 42 43 42 42 43 43 41 40 40 40 40 40 41 41 41 40 38 39 39 43 44 43 43 43 45 45 45 44 46 46 46 45 45 46 47 56 55 56 57
39 40 41 40 40 39 40 41 42 41 40 40 38 38 39 37 39 41 42 41 40 37 37 37 41 38 39 40 39 41 42 42 41 41 41 41 43 45 48 53 53 54 56
40 39 40 39 38 39 40 39 38 38 37 38 37 36 37 37 38 42 43 40 39 38 37 37 38 40 39 38 39 36 38 40 40 39 40 40 41 43 47 50 54 56 56
40 40 40 39 38 38 38 38 38 35 33 33 34 35 34 35 38 39 42 41 40 38 37 37 38 39 39 40 40 38 38 39 37 37 37 38 39 41 45 48 56 58 59
38 38 37 37 38 38 37 37 35 34 33 32 33 33 34 34 36 38 39 40 41 39 37 39 40 39 39 38 38 38 39 38 38 37 37 37 40 43 45 47 50 55 58
35 36 37 37 36 36 36 35 33 33 33 32 32 33 33 34 36 38 38 38 38 38 40 40 40 39 39 38 37 38 38 38 38 38 39 39 40 42 42 46 48 51 54
37 36 35 35 35 34 34 36 36 36 36 35 35 35 35 35 35 37 36 35 35 35 37 37 36 36 35 34 35 35 37 40 40 39 39 40 40 40 41 43 47 50 51
35 35 37 37 37 37 37 37 38 37 38 37 36 36 35 36 36 37 37 37 37 37 37 36 35 35 34 34 35 35 35 37 39 40 40 39 39 40 41 43 45 47 50
37 37 37 37 36 36 36 36 35 36 37 37 36 36 36 37 37 37 37 36 36 36 36 36 35 36 35 35 35 34 34 35 37 38 39 40 40 40 40 42 45 47 50
37 38 37 36 36 36 36 36 36 35 35 36 37 36 36 36 36 36 36 36 36 36 36 36 35 35 35 35 36 35 36 36 36 37 38 38 40 40 41 43 45 48 48
36 37 37 37 37 37 36 35 35 35 35 34 35 35 36 36 36 36 36 37 36 37 37 36 36 36 36 36 36 36 36 36 37 38 39 39 40 40 41 43 45 41 44
37 37 37 38 35 35 35 34 33 33 33 34 34 34 35 35 34 34 34 35 35 35 36 37 36 36 36 35 36 37 36 37 37 38 38 38 39 39 40 41 44 46 49
38 38 35 38 35 35 35 33 33 34 33 33 33 35 33 32 32 33 34 34 36 36 35 35 35 36 37 37 36 36 37 37 37 37 38 39 40 40 41 42 43 47 49
38 39 39 38 37 36 35 34 34 33 33 32 33 34 33 33 33 34 34 34 34 35 38 37 36 36 36 35 35 36 36 36 36 37 38 39 40 40 41 41 44 47 49
36 36 36 35 36 35 35 34 34 34 33 33 33 32 32 32 32 33 33 35 34 35 37 37 37 36 36 37 36 36 35 37 38 39 40 40 40 41 41 42 44 47 48
38 35 35 34 35 35 35 34 34 33 33 32 32 32 31 31 31 32 33 34 35 35 36 37 37 36 36 36 36 36 36 36 38 40 41 42 42 40 42 43 44 47 48
37 37 34 34 34 34 34 34 34 33 33 32 32 32 31 31 31 31 32 33 34 34 35 35 36 37 37 36 35 35 35 33 36 36 42 42 42 41 41 45 46 47 49
36 35 34 34 33 33 33 33 33 33 32 32 32 31 31 31 31 31 31 32 33 33 34 34 34 35 37 36 36 34 33 33 35 34 40 42 41 42 43 45 46 47 47

GFSGL_sfc_dewp_276.txt.gz
Dewpoint
53 53 54 54 54 54 52 52 51 50 47 47 47 46 46 46 45 45 45 47 50 48 48 47 47 48 49 53 54 53 51 56 55 58 62 63 63 63 63 63 64 62 61
53 54 54 54 54 52 52 50 49 48 47 47 46 46 46 46 45 45 46 48 46 45 45 45 44 45 45 47 52 50 50 52 52 53 59 60 62 62 62 62 62 62 61
53 53 54 54 53 52 50 49 48 47 46 45 46 46 46 47 46 46 46 45 45 45 45 44 44 45 44 45 48 49 50 51 50 52 52 58 61 62 61 61 61 61 62
52 52 54 53 52 50 49 48 48 46 45 46 46 46 45 45 45 44 45 44 43 43 44 44 44 45 44 44 47 48 49 49 49 49 50 54 59 61 61 59 59 60 60
52 52 53 52 50 49 48 47 46 45 46 46 44 43 44 44 42 41 41 42 42 42 42 42 43 45 48 49 48 47 46 47 48 48 48 50 51 54 58 59 59 59 59
53 53 51 50 48 47 46 45 44 45 45 43 42 43 42 43 44 43 42 39 40 41 40 40 42 45 46 49 50 51 50 47 47 47 46 47 50 52 56 57 57 56 56
52 50 48 47 46 44 43 44 44 43 42 41 41 40 41 42 43 42 43 40 39 40 39 39 41 43 46 46 47 49 49 49 52 53 48 50 49 50 51 52 57 57 57
45 43 42 42 43 43 42 41 43 43 41 40 39 40 40 41 43 42 43 41 39 37 39 40 42 43 41 41 44 45 45 45 46 49 48 47 47 47 48 51 53 57 58
43 44 44 42 42 39 39 41 41 39 39 38 39 39 38 38 41 40 39 36 39 38 38 40 41 38 40 40 38 39 39 42 44 45 44 43 43 43 45 50 51 53 52
43 42 41 40 39 39 39 38 38 37 38 38 37 37 38 37 38 39 40 41 41 37 35 37 40 39 40 39 38 36 36 37 39 39 39 40 41 42 45 49 50 51 51
45 42 40 40 37 38 38 37 37 36 36 35 34 35 36 35 35 39 41 39 38 38 37 34 34 40 39 39 40 38 37 38 38 38 38 37 38 39 41 46 51 52 52
39 37 37 37 37 37 36 36 36 34 34 33 33 32 34 34 37 38 39 41 40 38 37 37 38 39 39 39 38 38 38 38 37 37 37 37 37 38 41 44 48 52 55
36 36 36 35 35 35 34 34 34 33 33 32 32 32 33 34 36 39 39 39 41 40 39 40 39 40 40 38 38 38 38 37 37 37 36 37 38 39 42 44 48 51 51
35 34 34 34 35 34 34 34 34 35 34 33 34 34 35 36 36 37 38 38 38 37 37 36 40 39 39 39 38 35 35 36 37 38 37 38 39 40 40 41 43 47 49
35 35 35 36 36 36 36 37 37 37 37 37 36 35 34 34 34 36 36 36 37 37 38 38 36 36 35 34 34 35 35 35 36 38 40 39 39 40 40 41 43 47 48
36 36 36 35 35 35 35 36 37 37 37 37 36 36 36 37 37 37 37 37 37 37 38 37 36 36 35 35 34 34 35 35 35 36 38 40 39 39 39 41 43 44 44
35 35 34 35 35 36 35 36 35 36 37 37 37 37 37 36 36 37 36 36 36 36 36 36 36 36 36 35 35 34 34 34 35 36 37 38 38 40 40 40 42 44 46
35 38 36 37 36 34 32 33 34 34 33 32 34 35 35 36 36 36 36 36 35 37 36 36 36 36 36 36 36 35 35 36 36 36 36 38 39 39 39 41 43 43 46
33 34 37 37 36 36 35 35 34 33 32 33 33 34 35 36 36 36 36 34 33 35 36 36 37 37 37 37 37 36 36 36 36 37 38 39 40 40 39 42 44 39 41
36 37 37 37 36 34 35 33 33 33 33 33 33 33 34 34 32 33 34 34 34 35 36 36 36 37 38 37 36 37 38 37 37 38 38 38 39 39 39 40 43 43 43
35 36 34 35 35 35 34 34 34 34 33 33 33 34 33 32 32 32 33 34 34 34 34 36 37 36 37 38 37 37 37 38 37 37 38 38 39 40 41 41 43 43 44
33 34 33 33 34 35 34 35 34 34 34 33 33 33 33 33 32 32 31 32 33 35 35 36 36 38 37 37 38 38 37 37 37 37 38 38 38 40 41 41 43 44 44
34 33 33 32 32 33 34 34 34 33 33 33 33 32 32 32 32 31 31 31 33 34 35 35 36 37 38 37 38 38 36 36 36 38 38 38 39 40 41 41 41 43 45
34 33 32 32 33 32 32 33 33 33 33 33 32 32 32 32 32 31 32 32 32 32 34 34 34 34 35 38 37 37 37 36 38 38 40 40 40 41 42 43 43 43 43
34 33 32 32 31 31 31 31 32 32 33 32 32 32 32 32 31 31 32 32 32 32 33 34 35 35 35 36 37 36 35 33 36 36 41 40 40 41 40 42 43 44 45
33 33 32 31 31 31 30 29 30 31 31 32 32 31 31 31 31 31 31 31 31 31 33 33 34 36 36 35 36 34 33 33 34 34 39 40 41 41 41 41 43 45 46

GFSGL_sfc_dewp_279.txt.gz
Dewpoint
53 53 53 53 52 52 52 50 48 46 46 46 46 45 45 45 45 44 45 48 46 44 44 44 43 44 43 44 48 49 49 49 49 50 53 56 60 62 63 63 63 62 62
53 53 53 53 52 51 50 48 48 46 46 45 46 46 46 46 45 45 47 45 44 44 44 43 42 43 43 43 44 46 47 48 48 48 50 51 55 62 62 61 62 62 61
53 53 53 53 51 51 49 48 47 46 45 45 46 45 45 44 45 46 45 45 44 43 42 41 41 43 42 42 43 45 46 48 48 48 48 50 54 61 60 61 61 61 62
53 53 53 52 52 50 49 48 47 46 45 45 45 44 44 43 43 42 43 42 42 42 42 42 42 42 43 43 44 44 45 45 46 47 47 47 50 57 59 59 58 60 60
52 53 53 53 51 49 48 47 46 45 46 45 43 43 42 43 42 41 40 40 40 40 41 41 41 44 46 46 47 45 44 44 45 45 45 46 46 48 50 54 57 59 59
52 52 53 51 49 48 46 45 45 45 43 42 42 41 40 42 44 43 41 39 39 39 39 39 40 44 45 45 46 48 49 44 44 44 45 46 47 46 48 48 54 56 56
53 53 50 48 45 44 44 44 44 42 41 40 40 39 40 40 42 42 43 40 39 39 38 38 40 43 41 40 44 45 47 48 49 48 47 49 47 46 44 44 47 51 54
44 43 43 42 42 41 43 42 42 41 39 39 39 39 39 39 42 41 42 39 38 38 37 39 41 40 39 39 39 38 39 44 44 43 45 44 43 43 44 45 46 50 56
45 46 44 44 44 44 42 40 40 38 37 37 37 37 37 37 40 41 39 36 36 38 36 39 41 39 40 40 38 37 37 38 40 42 42 42 41 41 43 44 45 47 49
45 46 45 45 44 42 40 37 37 37 36 37 36 36 37 37 38 39 38 38 39 38 33 34 42 39 39 39 38 38 36 36 37 38 37 38 39 39 43 45 45 45 49
45 44 43 43 42 40 38 37 37 36 35 34 33 33 33 36 35 38 38 37 35 33 33 33 35 39 39 39 39 38 37 37 37 37 37 37 37 37 38 40 44 47 47
43 42 41 40 39 35 34 34 34 33 33 32 32 32 34 34 37 38 38 39 39 39 38 38 39 39 39 40 40 39 38 38 36 36 36 36 36 37 38 39 43 46 50
40 38 37 35 34 34 33 33 33 33 33 32 33 33 34 35 36 38 38 38 40 40 40 40 39 39 39 40 40 39 39 35 35 35 36 36 37 38 38 40 42 43 46
36 35 36 36 35 35 36 36 36 36 36 35 36 35 35 35 35 36 36 38 39 39 38 37 39 38 39 39 39 38 35 35 34 35 36 38 38 39 39 40 40 41 44
35 35 35 35 34 34 35 35 36 36 37 35 35 35 35 36 36 37 37 37 37 38 39 38 37 37 37 36 36 35 35 35 35 36 35 36 40 40 39 40 40 42 43
34 34 34 33 34 33 33 33 37 37 37 37 36 36 35 36 36 36 36 36 36 36 36 36 37 37 37 36 35 35 35 35 35 34 35 36 39 41 39 40 40 41 41
33 33 34 36 33 33 33 33 31 32 34 34 35 35 35 35 35 35 34 34 34 35 34 35 36 36 36 36 36 35 35 35 35 35 36 36 37 38 41 41 40 41 42
34 37 34 36 35 35 34 34 33 32 32 32 34 35 35 35 35 33 35 35 33 34 34 35 36 36 37 36 36 36 37 36 36 36 36 37 37 38 39 40 43 41 42
35 36 36 35 36 36 35 35 33 33 32 33 32 34 34 35 34 33 34 33 33 32 34 35 36 37 37 38 38 38 37 37 37 37 38 38 39 41 40 41 42 40 40
35 37 36 33 32 33 34 33 34 34 33 33 33 33 34 33 32 32 33 33 33 33 33 34 35 36 37 37 38 38 37 38 38 38 38 39 39 40 39 39 41 42 42
33 32 32 30 30 31 34 33 33 34 33 33 32 34 33 32 32 32 32 31 31 32 32 34 34 34 35 37 37 38 38 38 38 38 39 38 39 40 40 41 41 43 44
31 31 31 30 30 30 31 33 33 33 33 33 33 33 32 33 32 31 31 31 31 32 32 34 34 35 36 37 37 37 38 38 38 38 39 38 38 39 40 41 42 43 44
32 31 30 30 30 30 29 30 31 32 32 33 32 32 32 31 31 31 31 32 32 32 33 33 33 33 34 35 38 38 37 37 38 38 38 39 38 39 40 40 40 42 43
32 31 30 30 30 29 28 28 28 30 31 32 31 32 31 31 31 31 31 32 32 32 32 32 33 34 34 34 35 38 37 38 38 37 38 39 40 39 41 42 42 42 43
32 31 30 30 28 28 28 27 27 28 30 30 30 30 30 30 30 31 31 31 31 31 31 32 32 34 35 35 34 35 35 33 35 35 38 39 39 39 41 42 42 43 43
31 30 29 29 28 28 27 26 26 26 28 29 29 29 30 30 30 30 30 30 30 30 31 32 33 35 35 35 36 34 34 33 34 33 38 39 39 40 41 40 41 41 43

GFSGL_sfc_dewp_282.txt.gz
Dewpoint
54 54 53 53 53 53 52 50 49 48 48 48 48 48 48 48 47 48 49 48 46 46 45 44 44 45 43 43 45 46 47 50 48 50 54 55 55 55 61 63 63 64 63
53 53 53 53 53 52 51 49 48 48 48 48 48 48 47 47 48 49 47 46 45 44 43 43 42 41 44 45 45 46 47 48 49 48 51 52 53 56 58 61 62 63 63
53 53 53 53 52 51 50 49 49 48 48 48 48 47 46 46 46 46 46 45 44 43 43 43 42 43 44 44 46 46 47 46 48 48 49 52 54 57 56 59 60 61 63
53 53 52 52 52 51 50 49 48 48 47 47 47 46 45 46 44 44 44 43 43 42 43 43 42 42 44 46 46 48 47 47 48 48 49 51 52 53 55 53 53 58 60
53 53 53 53 52 50 50 49 48 48 47 46 45 44 44 44 42 43 43 42 42 41 42 42 42 44 47 45 46 48 48 47 47 47 48 50 51 52 50 50 52 53 60
53 53 53 52 50 50 48 47 47 46 44 44 43 42 42 42 44 44 42 42 41 41 41 41 42 44 44 42 43 44 47 49 48 47 47 49 49 48 47 47 49 49 52
54 54 52 50 48 46 46 46 45 44 43 42 41 41 41 42 43 43 43 42 41 40 40 40 40 40 42 41 41 41 42 47 46 47 44 43 43 46 45 45 46 47 49
50 48 47 45 44 45 44 43 43 43 41 40 40 40 40 39 41 41 43 41 40 40 40 41 42 41 41 41 40 40 40 41 42 39 43 42 41 42 43 43 45 48 52
46 46 46 44 44 44 43 43 42 41 38 38 38 38 38 38 39 41 41 39 39 40 41 39 42 41 41 40 39 39 39 39 39 40 41 41 41 41 41 42 43 44 46
46 46 45 45 44 43 43 42 41 40 38 37 37 37 37 38 38 39 39 37 38 36 39 39 40 41 39 40 39 38 37 37 37 38 37 38 39 40 41 43 43 43 45
45 44 44 43 43 42 41 41 40 38 36 36 35 36 37 37 38 38 39 37 36 36 35 34 35 39 39 39 39 40 38 38 38 37 36 36 37 38 38 40 43 44 44
42 42 41 41 41 40 39 38 37 36 35 35 34 35 35 37 37 38 38 39 39 37 37 38 39 39 39 39 40 40 40 40 37 36 35 35 36 37 39 40 43 45 47
40 39 39 39 39 39 39 37 36 36 36 36 35 36 36 37 38 39 38 38 39 38 38 40 40 39 39 39 40 40 40 39 37 34 33 34 36 38 40 41 44 46 46
38 38 38 37 37 37 36 36 36 35 35 35 35 35 35 36 36 37 37 37 38 38 38 38 39 39 39 39 39 39 39 38 36 34 34 34 36 38 40 40 40 44 45
36 36 35 35 35 34 34 35 35 36 35 34 34 34 33 34 35 36 36 35 36 36 36 36 37 37 37 38 38 38 38 37 36 35 35 35 34 35 39 41 41 44 45
34 34 36 35 34 33 33 33 35 35 35 35 35 34 33 34 35 35 35 33 33 34 33 33 34 35 36 37 37 37 36 36 36 36 35 34 33 35 39 41 42 44 43
35 35 35 36 34 34 34 34 32 33 35 35 35 35 35 35 35 34 32 33 34 33 32 32 34 35 36 37 37 37 37 37 37 36 36 36 35 35 37 38 43 43 44
35 36 35 35 35 36 35 34 34 33 32 32 34 35 35 35 35 34 33 33 30 32 33 33 33 36 37 37 37 37 37 38 37 37 36 36 37 35 35 37 41 43 44
35 36 35 34 33 34 34 33 33 34 33 33 33 33 33 34 34 34 34 33 31 31 33 34 34 35 35 36 38 38 39 39 38 38 38 39 38 38 38 39 41 38 41
34 34 34 32 31 31 32 32 32 33 33 33 33 32 32 33 32 30 32 32 32 31 30 32 33 34 33 35 37 38 37 38 39 39 39 39 39 39 39 38 39 40 42
34 34 31 32 31 30 30 30 32 33 33 33 33 32 32 33 32 31 32 31 31 31 29 30 30 32 33 33 35 36 38 38 39 39 39 40 40 40 40 39 40 42 43
34 34 33 32 32 31 30 30 30 30 32 32 32 31 31 33 32 32 31 31 32 32 32 32 32 32 32 32 34 36 37 37 39 39 40 40 40 39 39 39 40 42 43
34 33 32 31 31 30 29 29 29 29 30 31 32 31 30 30 31 31 31 32 32 33 33 33 32 31 32 33 33 34 35 38 37 38 40 39 39 39 39 38 39 41 42
33 33 32 30 29 29 28 29 28 27 28 30 30 30 30 30 30 30 31 32 32 32 32 33 32 32 32 33 35 33 34 37 38 38 37 38 38 39 38 39 39 41 42
32 32 31 30 29 28 28 27 27 26 26 28 29 29 29 29 29 30 31 31 31 31 31 32 32 32 32 34 35 35 34 33 36 35 38 38 37 38 38 41 41 42 42
30 30 30 30 29 28 28 27 26 26 26 26 28 28 28 29 29 30 30 31 31 30 31 32 32 33 34 35 36 34 33 33 34 33 37 37 37 38 38 39 40 41 41

GFSGL_sfc_dewp_285.txt.gz
Dewpoint
62 59 57 55 56 56 55 54 53 53 52 50 50 50 49 49 49 51 51 50 49 50 49 47 47 47 42 40 41 42 41 42 42 40 44 49 54 55 55 58 63 63 65
60 57 55 55 55 56 55 53 52 52 51 50 49 48 47 47 50 49 46 47 47 46 46 46 44 42 46 45 43 46 46 47 44 44 45 45 50 53 56 57 59 63 63
59 56 55 55 54 55 53 53 52 51 50 49 49 47 46 47 47 48 47 46 46 46 45 45 44 44 43 44 46 46 45 45 45 44 44 44 47 50 53 54 56 59 62
57 55 55 55 55 53 53 52 52 51 50 50 49 47 46 46 45 45 46 46 45 43 44 45 43 43 44 46 45 47 46 47 45 44 42 43 45 49 50 50 50 52 59
56 55 55 55 55 54 53 52 52 51 50 49 47 46 46 46 41 46 45 45 45 44 44 43 43 44 44 43 42 44 46 44 43 43 42 42 43 47 46 47 48 50 58
54 54 54 54 54 53 52 51 51 50 49 48 46 45 46 42 44 44 43 43 43 43 43 43 44 43 42 41 41 42 43 45 46 43 43 46 46 46 44 44 45 46 48
55 54 54 53 53 52 50 50 49 48 48 47 46 45 44 44 43 43 43 41 41 42 43 42 41 37 41 41 42 42 43 44 43 46 43 42 43 45 44 45 45 44 45
54 52 51 50 49 49 46 44 44 43 44 44 42 41 41 40 41 42 42 42 41 41 42 42 42 41 41 40 39 39 40 41 43 40 43 42 40 41 41 43 44 45 45
47 47 46 44 44 44 43 43 43 44 43 43 43 42 41 39 40 40 41 40 39 39 38 40 39 39 40 41 39 37 37 38 41 41 40 40 40 41 41 38 37 38 39
46 46 46 45 44 43 43 43 43 43 42 42 40 40 40 39 40 40 39 35 37 35 39 39 40 38 39 40 39 38 37 36 37 38 39 40 41 41 42 43 39 38 39
44 44 44 44 42 43 42 43 42 41 42 41 40 40 40 39 39 39 39 37 35 34 34 35 35 39 39 39 40 39 38 39 38 38 36 36 37 38 37 40 43 40 39
42 41 41 42 42 42 41 42 42 42 41 40 41 40 39 40 40 39 39 39 39 37 35 35 37 39 39 39 39 38 39 40 35 34 34 34 34 37 37 40 44 44 44
39 40 40 40 40 41 41 41 40 40 38 37 35 35 35 36 37 39 39 38 39 38 38 39 40 39 40 39 39 39 40 37 36 34 33 33 34 35 40 42 44 46 47
39 39 40 39 39 40 39 37 35 35 35 34 34 34 34 35 35 36 35 35 36 35 37 37 37 38 39 39 39 39 39 38 37 35 34 33 35 35 36 39 39 40 42
38 37 36 35 35 35 35 34 34 35 34 33 33 32 32 32 33 34 34 32 33 34 35 33 33 33 34 36 37 37 38 39 37 36 35 34 34 33 35 37 39 39 41
32 32 34 34 34 34 34 35 35 34 35 35 35 34 33 34 35 35 35 34 33 33 32 31 31 32 32 34 35 36 38 37 36 36 36 36 35 34 35 37 40 39 39
31 30 28 30 32 34 34 34 33 35 35 35 34 35 35 35 35 35 35 34 34 33 32 32 32 33 34 36 37 37 37 36 38 37 37 36 36 35 35 37 39 42 41
34 34 28 27 28 30 32 33 32 32 32 32 34 34 34 35 35 34 34 34 32 32 34 34 33 34 35 34 36 38 38 39 38 38 38 37 37 36 35 36 37 41 42
31 29 29 28 27 28 28 30 31 32 32 32 33 33 33 34 34 34 34 35 33 32 33 33 33 33 34 33 34 35 37 38 38 39 39 39 38 38 37 37 37 37 38
33 34 31 26 26 25 25 25 26 29 32 32 32 33 33 33 31 32 33 33 33 34 32 32 32 32 32 33 32 33 35 37 38 39 39 39 40 40 39 39 39 39 39
32 33 32 28 25 26 25 24 25 27 31 32 32 33 32 32 32 32 32 32 32 33 33 32 30 30 30 32 32 33 35 35 38 38 39 39 40 40 39 39 38 39 40
33 35 33 31 29 28 26 27 27 29 31 32 32 32 31 32 32 32 31 32 32 33 33 33 32 32 31 31 31 32 33 34 38 37 40 40 40 39 40 39 39 40 41
34 35 34 30 29 28 28 28 28 29 29 30 31 31 31 31 31 31 31 31 32 33 33 33 32 31 31 31 32 32 32 34 35 38 38 39 39 39 39 39 38 39 40
33 32 32 28 26 28 28 30 29 28 28 29 31 31 31 31 31 31 31 31 32 31 32 32 32 31 32 32 32 33 33 34 35 38 38 38 38 37 38 38 39 39 40
30 28 28 29 30 30 30 29 30 28 28 29 31 30 30 30 30 30 31 31 32 31 31 31 31 31 32 32 32 33 35 33 34 34 38 39 37 37 38 40 41 40 41
27 26 27 30 31 31 31 30 29 29 29 30 31 31 31 31 30 31 31 31 31 31 32 33 33 32 32 32 32 34 34 33 34 33 37 38 37 37 38 40 39 41 41

GFSGL_sfc_dewp_288.txt.gz
Dewpoint
68 68 67 65 62 60 59 57 55 55 54 52 51 51 51 51 50 53 51 50 49 49 49 47 47 49 42 41 40 40 40 40 38 39 41 46 51 52 52 54 55 57 63
67 67 65 63 60 59 58 56 55 54 53 51 50 50 49 49 52 50 48 47 46 46 45 47 45 42 47 46 41 46 45 47 44 47 46 44 48 52 53 54 53 52 58
65 64 63 61 59 58 57 57 55 53 52 51 50 49 48 49 49 49 48 47 46 46 46 46 45 45 45 44 47 45 44 44 45 43 43 42 44 46 49 51 52 56 53
63 62 61 59 58 57 56 55 54 52 52 51 51 49 49 47 47 47 47 48 47 45 46 46 45 45 45 47 45 46 45 45 44 42 41 41 42 50 47 44 44 47 55
60 59 59 58 57 57 56 54 53 53 52 51 50 49 49 47 42 47 48 47 47 46 46 44 45 45 43 44 40 44 45 43 40 40 40 41 43 46 45 44 42 45 51
58 57 57 57 56 56 55 54 54 53 52 50 48 47 49 43 45 43 44 44 45 45 45 45 45 44 45 44 42 41 43 42 43 40 40 40 45 44 43 42 43 42 44
56 55 55 56 55 55 54 54 53 53 52 51 49 47 46 44 43 44 43 43 43 44 45 44 42 38 42 42 44 44 44 44 44 44 42 43 44 44 45 44 44 43 42
55 54 55 54 54 54 53 52 52 51 49 46 44 43 43 40 40 41 41 42 42 43 43 43 44 44 43 42 41 40 40 40 41 42 43 43 43 42 43 43 44 44 42
52 53 53 52 50 48 48 46 47 47 45 45 44 43 43 43 41 40 40 40 40 41 41 42 42 42 41 41 39 39 40 40 41 44 43 42 41 40 40 39 36 36 36
47 47 46 46 45 44 44 44 45 44 43 43 42 44 44 43 41 41 39 36 38 37 41 41 42 40 40 40 38 38 37 38 38 38 38 40 42 43 43 44 40 37 37
43 43 43 42 42 43 42 43 43 43 43 42 42 43 43 43 42 40 40 38 36 36 36 36 36 41 40 40 40 38 38 39 39 37 35 36 37 39 38 40 43 40 39
41 41 41 42 42 43 42 43 43 43 43 43 44 43 41 42 42 40 39 39 39 37 37 37 38 39 39 39 39 39 39 40 37 36 35 35 35 35 37 40 46 45 44
41 40 40 41 42 42 42 43 41 41 39 38 37 37 37 37 39 39 39 37 37 36 36 37 38 38 38 39 40 40 40 38 37 36 36 36 35 36 38 41 44 47 47
40 40 42 43 41 41 40 38 37 36 36 34 34 35 35 35 35 36 35 35 36 35 35 35 35 36 36 36 37 38 38 37 39 38 38 37 36 36 36 37 38 41 40
40 40 38 37 37 36 36 36 35 37 34 33 34 34 33 34 33 34 34 33 33 32 33 33 33 34 34 34 35 35 37 37 39 41 38 36 35 35 34 36 37 38 40
31 29 31 33 34 35 35 36 35 34 35 35 36 34 33 35 35 36 36 36 35 35 32 32 33 33 33 33 33 34 35 36 39 40 40 37 36 35 34 35 37 39 40
31 31 27 28 28 30 32 33 33 35 36 35 35 35 35 35 35 35 35 35 34 34 33 33 33 33 33 33 35 35 35 36 38 39 39 37 37 37 36 35 36 39 38
31 32 27 27 27 27 27 29 30 32 33 33 35 34 34 34 34 34 34 34 34 34 33 33 33 34 35 34 34 34 35 36 37 38 38 38 38 37 36 35 36 38 40
32 29 27 26 24 27 25 25 25 27 30 32 34 34 34 34 34 34 34 34 34 32 33 33 33 33 34 33 33 33 34 36 37 39 39 39 39 38 38 37 37 35 38
32 34 31 25 22 23 23 23 24 26 28 31 32 32 33 32 32 32 32 34 34 33 32 32 32 32 32 32 33 33 32 34 35 39 38 38 38 40 39 39 39 39 39
30 32 30 27 24 24 23 25 25 25 26 28 31 32 31 33 33 33 32 32 32 32 32 32 32 31 32 32 32 33 33 33 35 36 38 39 40 40 40 39 39 39 38
32 32 32 31 27 25 24 25 25 27 27 28 30 31 31 33 33 32 32 32 32 31 32 32 32 32 31 32 32 33 32 32 33 35 39 39 38 39 40 40 40 39 40
32 31 30 29 28 27 26 25 28 29 28 27 31 32 32 32 32 32 32 31 32 32 32 32 32 32 32 33 33 34 33 32 32 36 36 39 39 40 40 39 39 39 40
32 29 27 26 27 28 29 29 29 29 29 28 31 32 32 32 32 31 31 31 31 32 32 32 32 32 33 34 34 34 34 34 33 34 37 39 39 39 38 38 39 39 39
30 26 25 28 30 31 30 30 32 30 30 31 32 33 32 32 31 31 32 32 32 32 32 33 33 34 34 34 34 34 34 32 34 34 37 38 39 37 37 39 41 40 40
31 28 27 29 31 32 33 34 32 32 32 32 34 34 34 33 32 32 32 33 33 32 33 35 35 35 35 33 33 33 33 33 34 33 36 37 39 37 36 38 39 41 41